map of RMF home
Great Circle Mapper logo
RMF - Airport
Location
City:  Marsa Alam, Egypt
Name:Marsa Alam International Airport
ICAO / IATA:HEMA / RMF

Details
Type:Airport (Aerodrome, Airfield)
Use:Public/Civil, International (customs port of entry)
Latitude:2533'26"N (25.557111)
Longitude:3435'01"E (34.583711)
Datum:WGS 1984
Elevation:251 ft (77 m)
Variation:3.90E (WMM2015 magnetic declination)
0.08 annual change
Runways:1
Longest:9843 × 148 ft (3000 × 45 m), paved

Time
Time Zone:UTC+2 (DST+3)
Local Time:

Weather
METAR:HEMA 012300Z 32008KT CAVOK 29/05 Q1009 NOSIG
TAF:HEMA 010500Z 0106/0212 36010G22KT CAVOK

Related Locations
Nearby:
Farthest:NTAV: 12257 mi / 19726 km
Raivavae, Tubuai Islands, Austral Islands, PF

Find:

   beyond  
but within

Other Information
Maps:
NOTAMs:
Links:
Sources:

  
flag of Egypt   

Sectional Chart

Flight Planning
at skyvector.com

Satellite Image

Google Maps Satellite view

 

Copyright © 2004-2015 Karl L. Swartz. All rights reserved.
The Great Circle Mapper name and logo are trademarks of the Great Circle Mapper.
All other trademarks mentioned herein belong to their respective owners.
Please see credits for attibutions and further copyright information.

  Follow gcmap on Facebook Follow gcmap on Twitter Follow gcmap on Google+

hCard Microformat

Geo Microformat